Location: Duac?
(36.9744°N, 30.6500°E)
Time: 23:51:22
(UTC+00:00)

Cosmos 2219 Rocket - Pass Details

Date: 05 August 2024
Orbit: 827 x 846 km, 71.0° (Epoch: 18 September)

Event Time Altitude Azimuth Distance (km) Brightness Sun altitude
Exits shadow 23:32:27 42° 75° (ENE) 1,178 3.1 -32.4°
Drops below altitude 10° 23:36:49 10° 34° (NE) 2,470 5.5 -32.1°
Sets 23:39:21 0° 29° (NNE) 3,411 6.5 -31.8°
